Knox, IN

8:45 AM CDT on August 16, 2017 (GMT -0500)
Starke County

Weather History for KOXI - January, 2012

Change the Weather History Date:

Sunday, January 8, 2012

  Actual Average (KRCR) Record (KRCR)
Temperature  
Mean Temperature 31 °F -  
Max Temperature 40 °F 28 °F 46 °F (2016)
Min Temperature 22 °F 12 °F -5 °F (2015)
Degree Days  
Heating Degree Days 34    
Moisture  
Dew Point 26 °F    
Average Humidity 83    
Maximum Humidity 98    
Minimum Humidity 59    
Precipitation  
Precipitation 0.00 in - - ()
Sea Level Pressure  
Sea Level Pressure 30.30 in    
Wind  
Wind Speed 1 mph (South)    
Max Wind Speed 7 mph    
Max Gust Speed -    
Visibility 8 miles    
Events      
Averages and records for this station are not official NWS values.
T = Trace of Precipitation, MM = Missing Value Source: NWS Daily Summary

Daily Weather History Graph

Daily Weather History Graph

Search for Another Location

Airport or City:

Trip Planner

Search our weather history database for the weather conditions in past years. The results will help you decide how hot, cold, wet, or windy it might be!

Date:

Astronomy

Jan. 08, 2012 Rise Set
Actual Time 7:12 AM CST 4:34 PM CST
Civil Twilight 6:41 AM CST 5:05 PM CST
Nautical Twilight 6:07 AM CST 5:39 PM CST
Astronomical Twilight 5:33 AM CST 6:12 PM CST
Moon 4:17 PM CST (1/8) 6:30 AM CST (1/8)
Length of Visible Light 10h 23m
Length of Day
9h 21m
Full, 100% of the Moon is Illuminated
Jan 8
Full
Jan 9
Full
Jan 16
Last Quarter
Jan 23
New
Jan 30
First Quarter

Hourly Weather History & Observations

Time (CST) Temp. Windchill Dew Point Humidity Pressure Visibility Wind Dir Wind Speed Gust Speed Precip Events Conditions
12:15 AM 24.4 °F - 23.7 °F 97% 30.23 in 5.0 mi Calm Calm - N/A   Clear
12:35 AM 24.3 °F - 23.5 °F 97% 30.23 in 4.0 mi Calm Calm - N/A   Clear
12:55 AM 23.9 °F - 23.0 °F 96% 30.23 in 3.0 mi Calm Calm - N/A   Clear
1:15 AM 23.5 °F - 22.8 °F 97% 30.23 in 5.0 mi Calm Calm - N/A   Clear
1:35 AM 22.8 °F - 22.1 °F 97% 30.24 in 1.0 mi Calm Calm - N/A   Unknown
1:55 AM 22.5 °F - 21.7 °F 97% 30.24 in 3.0 mi Calm Calm - N/A   Clear
2:15 AM 23.0 °F - 22.3 °F 97% 30.25 in 4.0 mi Calm Calm - N/A   Clear
2:35 AM 23.9 °F - 23.2 °F 97% 30.26 in 5.0 mi Calm Calm - N/A   Clear
2:55 AM 24.1 °F - 23.4 °F 97% 30.26 in 5.0 mi Calm Calm - N/A   Clear
3:15 AM 24.6 °F - 23.7 °F 96% 30.27 in 5.0 mi Calm Calm - N/A   Clear
3:35 AM 24.3 °F - 23.5 °F 97% 30.26 in 5.0 mi Calm Calm - N/A   Clear
3:55 AM 24.3 °F - 23.5 °F 97% 30.26 in 7.0 mi Calm Calm - N/A   Clear
4:15 AM 24.6 °F - 23.9 °F 97% 30.26 in 7.0 mi Calm Calm - N/A   Clear
4:35 AM 24.3 °F - 23.5 °F 97% 30.26 in 7.0 mi Calm Calm - N/A   Clear
4:55 AM 23.7 °F - 23.0 °F 97% 30.26 in 7.0 mi Calm Calm - N/A   Clear
5:15 AM 24.3 °F - 23.5 °F 97% 30.27 in 7.0 mi Calm Calm - N/A   Clear
5:35 AM 25.2 °F - 24.4 °F 97% 30.28 in 7.0 mi Calm Calm - N/A   Clear
5:55 AM 25.2 °F - 24.4 °F 97% 30.29 in 7.0 mi Calm Calm - N/A   Clear
6:15 AM 24.6 °F - 23.7 °F 96% 30.29 in 5.0 mi Calm Calm - N/A   Clear
6:35 AM 24.4 °F - 23.5 °F 96% 30.29 in 4.0 mi Calm Calm - N/A   Clear
6:55 AM 23.2 °F - 22.5 °F 97% 30.30 in 4.0 mi Calm Calm - N/A   Clear
7:15 AM 22.6 °F - 21.7 °F 96% 30.30 in 3.0 mi Calm Calm - N/A   Clear
7:35 AM 22.5 °F 16.3 °F 21.6 °F 96% 30.31 in 4.0 mi South 4.6 mph - N/A   Clear
8:15 AM 23.7 °F - 22.8 °F 96% 30.33 in 5.0 mi Calm Calm - N/A   Clear
8:35 AM 25.7 °F - 24.8 °F 96% 30.33 in 5.0 mi Calm Calm - N/A   Clear
9:15 AM 29.8 °F - 29.3 °F 98% 30.35 in 5.0 mi Calm Calm - N/A   Clear
9:35 AM 31.6 °F - 30.4 °F 95% 30.36 in 7.0 mi Calm Calm - N/A   Clear
9:55 AM 33.1 °F - 30.9 °F 92% 30.36 in 10.0 mi Calm Calm - N/A   Clear
10:15 AM 34.7 °F - 31.3 °F 87% 30.35 in 10.0 mi Calm Calm - N/A   Clear
10:35 AM 35.8 °F - 31.1 °F 83% 30.36 in 10.0 mi Calm Calm - N/A   Clear
10:55 AM 37.0 °F 34.5 °F 30.7 °F 78% 30.35 in 10.0 mi SSE 3.5 mph - N/A   Clear
11:15 AM 38.1 °F 33.7 °F 30.0 °F 73% 30.34 in 10.0 mi SE 5.8 mph - N/A   Clear
11:35 AM 38.8 °F 35.4 °F 29.3 °F 69% 30.34 in 10.0 mi SSE 4.6 mph - N/A   Clear
11:55 AM 39.4 °F 36.1 °F 28.8 °F 66% 30.33 in 10.0 mi ESE 4.6 mph - N/A   Clear
12:15 PM 40.1 °F 36.9 °F 29.1 °F 65% 30.32 in 10.0 mi SSE 4.6 mph - N/A   Scattered Clouds
12:35 PM 39.9 °F 35.8 °F 28.2 °F 63% 30.32 in 10.0 mi SSE 5.8 mph - N/A   Scattered Clouds
12:55 PM 40.1 °F - 28.0 °F 62% 30.31 in 10.0 mi Calm Calm - N/A   Scattered Clouds
1:15 PM 40.3 °F - 28.0 °F 62% 30.31 in 10.0 mi Calm Calm - N/A   Clear
1:35 PM 40.3 °F 38.2 °F 27.9 °F 61% 30.31 in 10.0 mi SSW 3.5 mph - N/A   Clear
1:55 PM 40.5 °F 35.8 °F 28.0 °F 61% 30.31 in 10.0 mi SW 6.9 mph - N/A   Scattered Clouds
2:15 PM 40.3 °F - 27.3 °F 60% 30.31 in 10.0 mi Calm Calm - N/A   Clear
2:35 PM 40.1 °F 38.0 °F 27.0 °F 59% 30.30 in 10.0 mi SW 3.5 mph - N/A   Scattered Clouds
2:55 PM 39.9 °F 36.7 °F 27.0 °F 60% 30.30 in 10.0 mi South 4.6 mph - N/A   Scattered Clouds
3:15 PM 39.9 °F 37.8 °F 27.0 °F 60% 30.30 in 10.0 mi SSW 3.5 mph - N/A   Scattered Clouds
3:35 PM 39.6 °F 37.4 °F 27.0 °F 61% 30.31 in 10.0 mi SW 3.5 mph - N/A   Scattered Clouds
3:55 PM 39.4 °F - 27.9 °F 63% 30.31 in 10.0 mi Calm Calm - N/A   Mostly Cloudy
4:15 PM 38.7 °F 36.3 °F 28.0 °F 66% 30.31 in 10.0 mi South 3.5 mph - N/A   Mostly Cloudy
4:35 PM 37.8 °F 35.3 °F 28.4 °F 69% 30.31 in 10.0 mi South 3.5 mph - N/A   Scattered Clouds
4:55 PM 37.2 °F - 27.9 °F 69% 30.31 in 10.0 mi Calm Calm - N/A   Mostly Cloudy
5:15 PM 36.5 °F 33.9 °F 28.2 °F 72% 30.31 in 10.0 mi SSE 3.5 mph - N/A   Overcast
5:35 PM 35.4 °F 32.6 °F 28.9 °F 77% 30.31 in 10.0 mi SSE 3.5 mph - N/A   Overcast
5:55 PM 35.1 °F 31.0 °F 29.1 °F 79% 30.31 in 10.0 mi South 4.6 mph - N/A   Overcast
6:15 PM 35.4 °F 32.6 °F 28.4 °F 76% 30.31 in 10.0 mi South 3.5 mph - N/A   Overcast
6:35 PM 35.6 °F 32.8 °F 28.2 °F 75% 30.31 in 10.0 mi South 3.5 mph - N/A   Overcast
6:55 PM 35.2 °F 32.4 °F 28.2 °F 76% 30.30 in 10.0 mi South 3.5 mph - N/A   Overcast
7:15 PM 34.5 °F - 28.6 °F 79% 30.31 in 10.0 mi Calm Calm - N/A   Overcast
7:35 PM 33.3 °F - 28.6 °F 83% 30.30 in 10.0 mi Calm Calm - N/A   Overcast
7:55 PM 33.1 °F - 28.4 °F 83% 30.29 in 10.0 mi Calm Calm - N/A   Overcast
8:15 PM 32.4 °F - 28.2 °F 85% 30.30 in 10.0 mi Calm Calm - N/A   Mostly Cloudy
8:35 PM 31.6 °F - 27.7 °F 85% 30.29 in 10.0 mi Calm Calm - N/A   Clear
8:55 PM 31.5 °F - 27.9 °F 87% 30.29 in 10.0 mi Calm Calm - N/A   Clear
9:15 PM 30.6 °F - 27.5 °F 88% 30.28 in 10.0 mi Calm Calm - N/A   Scattered Clouds
9:55 PM 29.5 °F - 27.5 °F 92% 30.29 in 10.0 mi Calm Calm - N/A   Overcast
10:15 PM 29.8 °F - 28.2 °F 94% 30.28 in 10.0 mi Calm Calm - N/A   Overcast
10:35 PM 30.0 °F - 28.2 °F 93% 30.28 in 10.0 mi Calm Calm - N/A   Overcast
10:55 PM 30.2 °F - 28.4 °F 93% 30.28 in 10.0 mi Calm Calm - N/A   Overcast
11:15 PM 29.8 °F - 27.7 °F 92% 30.28 in 10.0 mi Calm Calm - N/A   Scattered Clouds
11:35 PM 28.9 °F - 27.1 °F 93% 30.27 in 10.0 mi Calm Calm - N/A   Scattered Clouds
11:55 PM 28.6 °F - 27.1 °F 94% 30.27 in 10.0 mi Calm Calm - N/A   Scattered Clouds